Station HRRH1 - Lono Circle, He'eia Reserve, HI Image indicating link to RSS feed of recent meteorological observations for station HRRH1


Conditions at HRRH1 as of
(12:30 am HST)
1030 GMT on 09/01/2026:
     

Click on the graph icon in the table below to see a time series plot of the last five days of that observation.

5-day plot - Wind Direction Wind Direction (WDIR): NE ( 40 deg true )
5-day plot - Wind Speed Wind Speed (WSPD): 4.1 kts
5-day plot - Atmospheric Pressure Atmospheric Pressure (PRES):30.00 in
5-day plot - Air Temperature Air Temperature (ATMP): 77.9 °F
5-day plot - Dew Point Dew Point (DEWP): 72.9 °F
5-day plot - Heat Index Heat Index (HEAT): 80.2 °F
5-day plot -  Wind Speed, Wind Gust and Atmospheric Pressure Combined plot of Wind Speed, Gust, and Air Pressure
Previous observations
TIME
(HST)
5-day plot - Wind Direction
WDIR
 
5-day plot - Wind Speed
WSPD
kts
5-day plot - Wind Gust
GST
kts
5-day plot - Wave Height
WVHT
ft
5-day plot - Dominant Wave Period
DPD
sec
5-day plot - Average Wave Period
APD
sec
5-day plot - Mean Wave Direction
MWD
 
5-day plot - Atmospheric Pressure
PRES
in
5-day plot - Pressure Tendency
PTDY
in
5-day plot - Air Temperature
ATMP
°F
5-day plot - Water Temperature
WTMP
°F
5-day plot - Dew Point
DEWP
°F
5-day plot - Salinity
SAL
psu
5-day plot - Visibility
VIS
nmi
5-day plot - Tide (above MLLW)
TIDE
ft
2026-09-01 12:15 am NE 4.1-----30.00- 78.1- 72.7---
2026-09-01 12:00 am NE 4.1-----30.00+0.00 78.1- 72.7---
2026-08-31 11:45 pm NE 4.1-----30.00- 78.1- 72.3---
2026-08-31 11:30 pm NE 4.1-----30.00- 78.3- 72.5---
2026-08-31 11:15 pm NE 4.1-----30.00- 78.4- 72.7---
2026-08-31 11:00 pm NE 4.1-----30.00+0.03 78.6- 72.1---
2026-08-31 10:45 pm NE 5.1-----30.00- 78.8- 72.7---
2026-08-31 10:30 pm NE 5.1-----30.00- 78.8- 72.3---
2026-08-31 10:15 pm NE 4.1-----30.00- 78.4- 72.0---
2026-08-31 10:00 pm NE 5.1-----30.00+0.03 78.4- 72.0---
2026-08-31 09:45 pm NE 5.1-----30.00- 78.6- 73.6---
2026-08-31 09:30 pm NE 5.1-----30.00- 78.6- 73.2---
2026-08-31 09:15 pm NE 5.1-----30.00- 78.8- 73.8---
2026-08-31 09:00 pm NE 5.1-----30.00+0.06 78.8- 73.4---
2026-08-31 08:45 pm NE 5.1-----29.97- 79.0- 73.6---
2026-08-31 08:30 pmNNE 5.1-----29.97- 79.0- 73.2---
2026-08-31 08:15 pmNNE 5.1-----29.97- 79.0- 73.2---
2026-08-31 08:00 pmNNE 5.1-----29.97+0.03 79.0- 73.6---
2026-08-31 07:45 pmNNE 5.1-----29.97- 79.0- 73.9---
2026-08-31 07:30 pmNNE 5.1-----29.97- 79.0- 73.9---
2026-08-31 07:15 pmNNE 5.1-----29.97- 79.0- 73.6---
2026-08-31 07:00 pm NE 5.1-----29.97+0.03 79.0- 73.2---
2026-08-31 06:45 pmNNE 5.1-----29.94- 79.2- 73.8---
2026-08-31 06:30 pmNNE 5.1-----29.94- 79.3- 73.9---
2026-08-31 06:15 pm NE 5.1-----29.94- 79.3- 73.2---
2026-08-31 06:00 pm NE 5.1-----29.94+0.00 79.3- 72.9---
2026-08-31 05:45 pmNNE 5.1-----29.94- 79.5- 73.8---
2026-08-31 05:30 pmNNE 5.1-----29.94- 79.5- 73.4---
2026-08-31 05:15 pmNNE 5.1-----29.94- 79.5- 73.8---
2026-08-31 05:00 pmNNE 5.1-----29.94+0.00 79.9- 74.1---
2026-08-31 04:45 pmNNE 5.1-----29.94- 80.4- 73.9---
2026-08-31 04:30 pmNNE 5.1-----29.94- 80.4- 74.3---
2026-08-31 04:15 pmNNE 5.1-----29.94- 80.6- 74.7---
2026-08-31 04:00 pmNNE 5.1-----29.94-0.03 81.0- 75.0---
2026-08-31 03:45 pmNNE 5.1-----29.94- 81.3- 75.4---
2026-08-31 03:30 pmNNE 5.1-----29.94- 81.7- 75.4---
2026-08-31 03:15 pmNNE 6.0-----29.94- 81.9- 75.2---
2026-08-31 03:00 pmNNE 6.0-----29.94-0.06 81.9- 75.2---
2026-08-31 02:45 pmNNE 5.1-----29.94- 81.9- 75.9---
2026-08-31 02:30 pmNNE 6.0-----29.94- 81.9- 75.6---
2026-08-31 02:15 pmNNE 6.0-----29.94- 81.9- 75.2---
2026-08-31 02:00 pmNNE 5.1-----29.94-0.06 82.4- 75.0---
2026-08-31 01:45 pmNNE 5.1-----29.97- 82.2- 74.8---
2026-08-31 12:30 pmNNE 6.0-----30.00- 80.8- 73.8---
2026-08-31 12:15 pmNNE 5.1-----30.00- 81.0- 74.7---
2026-08-31 12:00 pmNNE 6.0-----30.00+0.00 80.6- 74.7---
2026-08-31 11:45 amNNE 5.1-----30.00- 79.9- 74.7---
2026-08-31 11:30 amNNE 5.1-----30.00- 80.2- 74.5---
2026-08-31 11:15 amNNE 5.1-----30.00- 80.4- 73.4---
2026-08-31 11:00 amNNE 5.1-----30.00+0.00 80.4- 74.7---
2026-08-31 10:45 amNNE 5.1-----30.00- 80.4- 73.9---
2026-08-31 10:30 amNNE 5.1-----30.00- 81.0- 74.3---
2026-08-31 10:15 amNNE 5.1-----30.03- 80.8- 74.1---
2026-08-31 10:00 amNNE 5.1-----30.03+0.03 80.6- 73.9---
2026-08-31 09:45 amNNE 5.1-----30.00- 80.4- 74.7---
2026-08-31 09:30 amNNE 5.1-----30.00- 80.2- 73.8---
2026-08-31 09:15 amNNE 5.1-----30.00- 79.7- 73.9---
2026-08-31 09:00 amNNE 5.1-----30.00+0.03 79.9- 73.4---
2026-08-31 08:45 am NE 6.0-----30.00- 80.1- 73.2---
2026-08-31 08:30 am NE 5.1-----30.00- 79.9- 73.0---
2026-08-31 08:15 amNNE 5.1-----30.00- 79.3- 74.3---
2026-08-31 08:00 am NE 5.1-----30.00+0.03 79.0- 73.2---
2026-08-31 07:45 am NE 5.1-----30.00- 79.0- 73.9---
2026-08-31 07:30 am NE 4.1-----30.00- 79.0- 73.2---
2026-08-31 07:15 am NE 4.1-----30.00- 78.4- 73.4---
2026-08-31 07:00 am NE 4.1-----30.00+0.03 78.1- 73.0---
2026-08-31 06:45 am NE 5.1-----29.97- 77.7- 72.7---
2026-08-31 06:30 am NE 5.1-----29.97- 77.5- 73.0---
2026-08-31 06:15 am NE 5.1-----29.97- 77.5- 72.9---
2026-08-31 06:00 am NE 4.1-----29.97+0.00 77.4- 73.0---
2026-08-31 05:45 am NE 4.1-----29.97- 77.4- 73.0---
2026-08-31 05:30 am NE 4.1-----29.97- 77.2- 72.9---
2026-08-31 05:15 am NE 4.1-----29.97- 77.4- 72.0---
2026-08-31 05:00 am NE 4.1-----29.97-0.03 77.2- 72.9---
2026-08-31 04:45 am NE 4.1-----29.97- 77.2- 73.0---
2026-08-31 04:30 am NE 4.1-----29.97- 77.2- 73.0---
2026-08-31 04:15 am NE 5.1-----29.97- 77.4- 73.2---
2026-08-31 04:00 am NE 5.1-----29.97-0.03 77.5- 73.4---
2026-08-31 03:45 am NE 5.1-----29.97- 77.5- 73.4---
2026-08-31 03:30 am NE 4.1-----29.97- 76.8- 74.3---
2026-08-31 03:15 amENE 2.9-----29.97- 75.9- 74.5---
2026-08-31 03:00 am NE 2.9-----29.97-0.06 74.8- 74.3---
2026-08-31 02:45 am- 0.0-----29.97- 74.1- 73.8---
2026-08-31 02:30 am E 1.9-----30.00- 75.2- 73.0---
2026-08-31 02:15 amENE 4.1-----30.00- 75.6- 74.7---
2026-08-31 02:00 amENE 1.9-----30.00-0.03 74.7- 74.1---
2026-08-31 01:45 am NE 5.1-----30.00- 75.4- 74.8---
2026-08-31 01:30 amENE 5.1-----30.00- 78.3- 73.6---
2026-08-31 01:15 amENE 5.1-----30.00- 78.3- 73.2---
2026-08-31 01:00 am NE 5.1-----30.00-0.03 78.3- 72.9---